Find Local Weather

World > North America > United States > Pennsylvania

Erie, Pennsylvania Regional Weather

Lat: 42.13N, Lon: 80.09W
Wx Zone: PAZ001
Feedback
Expires:201808191800;;904707
ASUS41 KPHI 191713
RWRPHI

REGIONAL WEATHER ROUNDUP
NATIONAL WEATHER SERVICE MOUNT HOLLY NJ
100 PM EDT SUN AUG 19 2018

NOTE:  "FAIR" INDICATES FEW OR NO CLOUDS BELOW 12,000 FEET WITH NO
SIGNIFICANT WEATHER AND/OR OBSTRUCTIONS TO VISIBILITY.

 * = STATION DOES NOT REPORT PRECIPITATION (E.G. RAIN, SNOW, ETC.) 
        OR FOG.


PAZ001-021-NYZ056-072-MDZ011-DCZ001-191800-
OTHER NEARBY LOCATIONS
  
CITY           SKY/WX    TMP DP  RH WIND       PRES   REMARKS
HARRISBURG     LGT RAIN  70  68  93 E7        29.98S FOG              
STATE COLLEGE  CLOUDY    70  63  78 NE6       30.01S                  
WILLIAMSPORT   PTSUNNY   76  63  64 CALM      29.99R                  
BINGHAMTON     CLOUDY    68  60  75 E7        30.05S                  
NEW YORK CITY  CLOUDY    69  65  86 VRB5      30.02S                  
BALTIMORE      PTSUNNY   78  68  71 VRB6      29.95R                  
WASHINGTON DC  PTSUNNY   82  64  54 NW8       29.95S                  

$$
  

SKY/WX - Weather  TMP - Temperature  DP - Dewpoint  RH - Relative Humidity
WIND - Wind Direction/Speed PRES - Barometric Pressure